When you browse on this site, cookies collect data to enhance your experience and personalize the content and advertising you see.
Visit our Privacy Policy to learn more. By continuing to use the site, you agree to this use of cookies and data.

Stündliche Wetter Kozani

Heute, 15 Juli, Mittwoch

Zeit Temperatur Niederschläge Wind Luftdruck Luftfeuchtigkeit
00:00 +19°C° 0 mm 1 m/S 704 mmHg 75%
01:00 +16°C° 0 mm 0 m/S 704 mmHg 75%
02:00 +16°C° 0 mm 0 m/S 704 mmHg 75%
03:00 +16°C° 0 mm 0 m/S 704 mmHg 75%
04:00 +16°C° 0 mm 0 m/S 703 mmHg 75%
05:00 +17°C° 0 mm 0 m/S 704 mmHg 71%
06:00 +20°C° 0 mm 1 m/S 704 mmHg 66%
07:00 +21°C° 0 mm 1 m/S 705 mmHg 62%
08:00 +22°C° 0 mm 1 m/S 705 mmHg 58%
09:00 +24°C° 0 mm 2 m/S 705 mmHg 55%
10:00 +25°C° 0 mm 2 m/S 705 mmHg 52%
11:00 +26°C° 0 mm 2 m/S 705 mmHg 49%
12:00 +27°C° 0 mm 2 m/S 705 mmHg 47%
13:00 +28°C° 0 mm 2 m/S 705 mmHg 45%
14:00 +27°C° 0.1 mm 2 m/S 705 mmHg 46%
15:00 +27°C° 0.1 mm 2 m/S 704 mmHg 48%
16:00 +27°C° 0.1 mm 1 m/S 704 mmHg 50%
17:00 +26°C° 0 mm 1 m/S 704 mmHg 54%
18:00 +25°C° 0 mm 1 m/S 704 mmHg 58%
19:00 +23°C° 0 mm 1 m/S 704 mmHg 62%
20:00 +22°C° 0.1 mm 1 m/S 704 mmHg 65%
21:00 +22°C° 0.1 mm 1 m/S 704 mmHg 68%
22:00 +21°C° 0.1 mm 1 m/S 704 mmHg 71%
23:00 +18°C° 0.1 mm 0 m/S 704 mmHg 73%

Morgen, 16 Juli, Donnerstag

Zeit Temperatur Niederschläge Wind Luftdruck Luftfeuchtigkeit
00:00 +18°C° 0.1 mm 0 m/S 704 mmHg 75%
01:00 +17°C° 0.1 mm 0 m/S 703 mmHg 77%
02:00 +17°C° 0.1 mm 0 m/S 703 mmHg 78%
03:00 +16°C° 0.1 mm 0 m/S 703 mmHg 79%
04:00 +16°C° 0.1 mm 0 m/S 702 mmHg 80%
05:00 +19°C° 0.1 mm 1 m/S 703 mmHg 75%
06:00 +21°C° 0.1 mm 1 m/S 703 mmHg 69%
07:00 +22°C° 0.1 mm 1 m/S 703 mmHg 64%
08:00 +24°C° 0.2 mm 1 m/S 703 mmHg 58%
09:00 +25°C° 0.2 mm 1 m/S 703 mmHg 51%
10:00 +27°C° 0.2 mm 1 m/S 703 mmHg 45%
11:00 +28°C° 0 mm 2 m/S 703 mmHg 42%
12:00 +28°C° 0 mm 2 m/S 703 mmHg 40%
13:00 +29°C° 0 mm 2 m/S 703 mmHg 37%
14:00 +28°C° 0 mm 2 m/S 703 mmHg 39%
15:00 +28°C° 0 mm 2 m/S 702 mmHg 41%
16:00 +28°C° 0 mm 2 m/S 702 mmHg 43%
17:00 +26°C° 0 mm 1 m/S 702 mmHg 48%
18:00 +25°C° 0 mm 1 m/S 702 mmHg 52%
19:00 +23°C° 0 mm 1 m/S 702 mmHg 57%
20:00 +22°C° 0 mm 1 m/S 702 mmHg 59%
21:00 +22°C° 0 mm 1 m/S 702 mmHg 61%
22:00 +19°C° 0 mm 0 m/S 702 mmHg 64%
23:00 +20°C° 0 mm 1 m/S 702 mmHg 65%

übermorgen, 17 Juli, Freitag

Zeit Temperatur Niederschläge Wind Luftdruck Luftfeuchtigkeit
00:00 +20°C° 0 mm 1 m/S 702 mmHg 66%
01:00 +20°C° 0 mm 1 m/S 702 mmHg 67%
02:00 +19°C° 0 mm 1 m/S 701 mmHg 69%
03:00 +19°C° 0 mm 1 m/S 701 mmHg 71%
04:00 +18°C° 0 mm 1 m/S 701 mmHg 73%
05:00 +20°C° 0 mm 1 m/S 701 mmHg 69%
06:00 +22°C° 0 mm 1 m/S 702 mmHg 65%
07:00 +23°C° 0 mm 1 m/S 702 mmHg 60%
08:00 +24°C° 0.2 mm 1 m/S 702 mmHg 57%
09:00 +26°C° 0.2 mm 1 m/S 702 mmHg 53%
10:00 +27°C° 0.2 mm 2 m/S 702 mmHg 50%
11:00 +27°C° 0.4 mm 2 m/S 702 mmHg 49%
12:00 +28°C° 0.4 mm 2 m/S 702 mmHg 48%
13:00 +28°C° 0.4 mm 3 m/S 702 mmHg 47%
14:00 +28°C° 0.3 mm 3 m/S 702 mmHg 48%
15:00 +28°C° 0.3 mm 3 m/S 701 mmHg 50%
16:00 +27°C° 0.3 mm 2 m/S 701 mmHg 52%
17:00 +26°C° 0.3 mm 2 m/S 701 mmHg 58%
18:00 +24°C° 0.3 mm 2 m/S 701 mmHg 65%
19:00 +23°C° 0.3 mm 2 m/S 701 mmHg 71%
20:00 +22°C° 0.2 mm 1 m/S 701 mmHg 73%
21:00 +21°C° 0.2 mm 1 m/S 701 mmHg 75%
22:00 +21°C° 0.2 mm 1 m/S 701 mmHg 77%
23:00 +18°C° 0.1 mm 0 m/S 701 mmHg 77%

18 Juli, Samstag

Zeit Temperatur Niederschläge Wind Luftdruck Luftfeuchtigkeit
00:00 +18°C° 0.1 mm 0 m/S 701 mmHg 78%
01:00 +18°C° 0.1 mm 0 m/S 701 mmHg 78%
02:00 +18°C° 0 mm 0 m/S 701 mmHg 78%
03:00 +17°C° 0 mm 0 m/S 701 mmHg 78%
04:00 +17°C° 0 mm 0 m/S 701 mmHg 79%
05:00 +19°C° 0 mm 0 m/S 701 mmHg 74%
06:00 +22°C° 0 mm 1 m/S 701 mmHg 69%
07:00 +23°C° 0 mm 1 m/S 701 mmHg 65%
08:00 +24°C° 0 mm 1 m/S 701 mmHg 58%
09:00 +26°C° 0 mm 2 m/S 702 mmHg 52%
10:00 +27°C° 0 mm 3 m/S 702 mmHg 46%
11:00 +28°C° 0.1 mm 3 m/S 702 mmHg 44%
12:00 +29°C° 0.1 mm 3 m/S 701 mmHg 43%
13:00 +29°C° 0.1 mm 4 m/S 701 mmHg 41%
14:00 +29°C° 0.1 mm 3 m/S 701 mmHg 43%
15:00 +29°C° 0.1 mm 3 m/S 701 mmHg 44%
16:00 +28°C° 0.1 mm 3 m/S 701 mmHg 45%
17:00 +27°C° 0.3 mm 3 m/S 701 mmHg 53%
18:00 +25°C° 0.3 mm 2 m/S 701 mmHg 60%
19:00 +23°C° 0.3 mm 2 m/S 701 mmHg 68%
20:00 +22°C° 0.7 mm 1 m/S 701 mmHg 71%
21:00 +21°C° 0.7 mm 1 m/S 701 mmHg 75%
22:00 +18°C° 0.7 mm 0 m/S 701 mmHg 79%
23:00 +18°C° 0.1 mm 0 m/S 701 mmHg 79%

19 Juli, Sonntag

Zeit Temperatur Niederschläge Wind Luftdruck Luftfeuchtigkeit
00:00 +18°C° 0.1 mm 0 m/S 701 mmHg 79%
01:00 +17°C° 0.1 mm 0 m/S 701 mmHg 79%
02:00 +19°C° 0 mm 1 m/S 701 mmHg 80%
03:00 +19°C° 0 mm 1 m/S 701 mmHg 81%
04:00 +18°C° 0 mm 1 m/S 701 mmHg 82%
05:00 +20°C° 0 mm 1 m/S 701 mmHg 78%
06:00 +21°C° 0 mm 1 m/S 701 mmHg 73%
07:00 +22°C° 0 mm 1 m/S 702 mmHg 68%
08:00 +24°C° 0 mm 1 m/S 702 mmHg 62%
09:00 +26°C° 0 mm 1 m/S 702 mmHg 56%
10:00 +28°C° 0 mm 1 m/S 703 mmHg 50%
11:00 +29°C° 0 mm 1 m/S 703 mmHg 47%
12:00 +29°C° 0 mm 1 m/S 703 mmHg 43%
13:00 +30°C° 0 mm 1 m/S 703 mmHg 40%
14:00 +30°C° 0 mm 1 m/S 703 mmHg 41%
15:00 +30°C° 0 mm 1 m/S 702 mmHg 42%
16:00 +29°C° 0 mm 1 m/S 702 mmHg 43%
17:00 +28°C° 0 mm 1 m/S 702 mmHg 48%
18:00 +27°C° 0 mm 1 m/S 702 mmHg 53%
19:00 +25°C° 0 mm 1 m/S 702 mmHg 58%
20:00 +25°C° 0 mm 1 m/S 703 mmHg 60%
21:00 +24°C° 0 mm 1 m/S 703 mmHg 61%
22:00 +22°C° 0 mm 0 m/S 703 mmHg 63%
23:00 +23°C° 0 mm 1 m/S 703 mmHg 64%

20 Juli, Montag

Zeit Temperatur Niederschläge Wind Luftdruck Luftfeuchtigkeit
00:00 +23°C° 0 mm 1 m/S 703 mmHg 66%
01:00 +22°C° 0 mm 1 m/S 703 mmHg 67%
02:00 +22°C° 0 mm 1 m/S 703 mmHg 69%
03:00 +22°C° 0 mm 1 m/S 703 mmHg 70%
04:00 +21°C° 0 mm 1 m/S 703 mmHg 71%
05:00 +22°C° 0 mm 1 m/S 703 mmHg 68%
06:00 +23°C° 0 mm 1 m/S 703 mmHg 65%
07:00 +24°C° 0 mm 1 m/S 703 mmHg 62%
08:00 +25°C° 0 mm 1 m/S 703 mmHg 57%
09:00 +27°C° 0 mm 1 m/S 704 mmHg 53%
10:00 +28°C° 0 mm 1 m/S 704 mmHg 48%
11:00 +29°C° 0 mm 1 m/S 704 mmHg 45%
12:00 +30°C° 0 mm 1 m/S 704 mmHg 42%
13:00 +31°C° 0 mm 2 m/S 704 mmHg 39%
14:00 +31°C° 0 mm 2 m/S 703 mmHg 39%
15:00 +30°C° 0 mm 2 m/S 703 mmHg 40%
16:00 +30°C° 0 mm 2 m/S 703 mmHg 40%
17:00 +29°C° 0 mm 2 m/S 703 mmHg 43%
18:00 +27°C° 0 mm 2 m/S 703 mmHg 47%
19:00 +25°C° 0 mm 1 m/S 703 mmHg 51%
20:00 +25°C° 0 mm 1 m/S 703 mmHg 53%
21:00 +24°C° 0 mm 1 m/S 703 mmHg 54%
22:00 +23°C° 0 mm 1 m/S 703 mmHg 56%
23:00 +22°C° 0 mm 1 m/S 703 mmHg 57%
Mehr zeigen